Location: Bear Valley Meadows
(40.9851°N, 123.0761°W)
Time: 16:24:55
(UTC+00:00)

SL-8 Rocket - Pass Details

Date: 29 May 2024
Orbit: 957 x 990 km, 82.9° (Epoch: 17 June)

Event Time Altitude Azimuth Distance (km) Brightness Sun altitude
Exits shadow 12:07:39 - 205° (SSW) 3,304 6.2 -6.5°
Reaches altitude 10° 12:09:21 10° 209° (SSW) 2,685 5.8 -6.3°
Maximum altitude 12:15:14 46° 282° (WNW) 1,259 4.4 -5.3°
Drops below altitude 10° 12:21:08 10° 356° (N) 2,696 6.8 -4.4°
Sets 12:23:46 0° 2° (N) 3,647 7.6 -4.0°
